Weather History for Pensacola, FL

Change the Weather History Date:

Sunday, January 13, 2013

  Actual Average Record
Temperature  
Mean Temperature 71 °F 51 °F  
Max Temperature 74 °F 60 °F 78 °F (2000)
Min Temperature 68 °F 42 °F 15 °F (1981)
Degree Days  
Heating Degree Days 0 14  
Month to date heating degree days 100 182  
Since 1 July heating degree days 544 764  
Cooling Degree Days 6 0  
Month to date cooling degree days 0  
Year to date cooling degree days 0  
Growing Degree Days 21 (Base 50)    
Moisture  
Dew Point 67 °F    
Average Humidity 85    
Maximum Humidity 90    
Minimum Humidity 79    
Precipitation  
Precipitation 0.00 in 0.15 in 3.63 in (1932)
Month to date precipitation 0.73 1.80  
Year to date precipitation 0.73 1.80  
Snow  
Snow 0.00 in 0.00 in - ()
Month to date snowfall 0.0  
Since 1 July snowfall 0.0  
Snow Depth -    
Sea Level Pressure  
Sea Level Pressure 30.01 in    
Wind  
Wind Speed 13 mph (SSE)    
Max Wind Speed 21 mph    
Max Gust Speed 26 mph    
Visibility 7 miles    
Events      
T = Trace of Precipitation, MM = Missing Value Source: NWS Daily Summary

Daily Weather History Graph

Daily Weather History Graph

Search for Another Location

Airport:

Trip Planner

Search our weather history database for the weather conditions in past years. The results will help you decide how hot, cold, wet, or windy it might be!

Date:

Astronomy

Jan. 13, 2013 Rise Set
Actual Time 6:46 AM CST 5:08 PM CST
Civil Twilight 6:20 AM CST 5:34 PM CST
Nautical Twilight 5:50 AM CST 6:04 PM CST
Astronomical Twilight 5:21 AM CST 6:33 PM CST
Moon 7:56 AM CST (1/13) 7:33 PM CST (1/13)
Length of Visible Light 11h 14m
Length of Day
10h 22m
Waxing Crescent, 5% of the Moon is Illuminated
Jan 13
Waxing Crescent
Jan 18
First Quarter
Jan 26
Full
Feb 3
Last Quarter
Feb 10
New

Hourly Weather History & Observations

Time (CST) Temp. Dew Point Humidity Pressure Visibility Wind Dir Wind Speed Gust Speed Precip Events Conditions
12:53 AM 70.0 °F 66.9 °F 90% 30.02 in 8.0 mi SSE 10.4 mph - N/A   Overcast
1:53 AM 69.1 °F 66.9 °F 93% 30.00 in 7.0 mi SE 9.2 mph - N/A   Overcast
2:53 AM 69.1 °F 66.9 °F 93% 29.99 in 7.0 mi SSE 12.7 mph - N/A   Overcast
3:53 AM 69.1 °F 66.9 °F 93% 29.98 in 7.0 mi SSE 11.5 mph - N/A   Overcast
4:53 AM 69.1 °F 66.9 °F 93% 29.99 in 7.0 mi South 8.1 mph - N/A   Overcast
5:16 AM 69.8 °F 66.2 °F 88% 29.98 in 6.0 mi SSE 11.5 mph - N/A   Overcast
5:53 AM 69.1 °F 66.9 °F 93% 30.00 in 8.0 mi SSE 12.7 mph - N/A   Mostly Cloudy
6:37 AM 69.8 °F 66.2 °F 88% 30.00 in 9.0 mi SSE 11.5 mph - N/A   Clear
6:53 AM 69.1 °F 66.9 °F 93% 30.01 in 8.0 mi SSE 12.7 mph - N/A   Clear
7:35 AM 69.8 °F 66.2 °F 88% 30.02 in 6.0 mi SSE 10.4 mph - N/A   Mostly Cloudy
7:49 AM 69.8 °F 66.2 °F 88% 30.02 in 6.0 mi SSE 9.2 mph - N/A   Overcast
7:53 AM 69.1 °F 66.9 °F 93% 30.02 in 6.0 mi SSE 8.1 mph - N/A   Overcast
8:07 AM 69.8 °F 66.2 °F 88% 30.02 in 6.0 mi SSE 10.4 mph - N/A   Overcast
8:53 AM 71.1 °F 68.0 °F 90% 30.04 in 7.0 mi SSE 13.8 mph 23.0 mph N/A   Overcast
9:53 AM 72.0 °F 68.0 °F 87% 30.04 in 8.0 mi SSE 16.1 mph - N/A   Overcast
10:53 AM 73.0 °F 68.0 °F 84% 30.02 in 9.0 mi SSE 19.6 mph 26.5 mph N/A   Overcast
11:53 AM 73.9 °F 68.0 °F 82% 30.02 in 10.0 mi SSE 13.8 mph 20.7 mph N/A   Overcast
12:53 PM 73.0 °F 68.0 °F 84% 30.00 in 9.0 mi SSE 15.0 mph 21.9 mph N/A   Overcast
1:53 PM 73.0 °F 66.9 °F 81% 30.01 in 9.0 mi SSE 11.5 mph 19.6 mph N/A   Overcast
2:46 PM 73.4 °F 66.2 °F 78% 29.99 in 8.0 mi SSE 13.8 mph - N/A   Overcast
2:53 PM 73.0 °F 66.9 °F 81% 30.00 in 9.0 mi SSE 13.8 mph - N/A   Overcast
3:13 PM 71.6 °F 66.2 °F 83% 30.00 in 8.0 mi SSE 15.0 mph - N/A   Overcast
3:53 PM 71.1 °F 66.9 °F 87% 30.01 in 8.0 mi SSE 15.0 mph - N/A   Overcast
4:53 PM 71.1 °F 68.0 °F 90% 30.02 in 7.0 mi SSE 11.5 mph - N/A   Overcast
5:53 PM 70.0 °F 68.0 °F 93% 30.03 in 8.0 mi SSE 11.5 mph - N/A   Overcast
6:53 PM 70.0 °F 68.0 °F 93% 30.04 in 8.0 mi SSE 15.0 mph - 0.00 in   Overcast
7:25 PM 69.8 °F 68.0 °F 94% 30.02 in 7.0 mi SSE 11.5 mph - N/A   Overcast
7:53 PM 70.0 °F 68.0 °F 93% 30.03 in 6.0 mi SSE 11.5 mph - N/A   Overcast
8:53 PM 71.1 °F 69.1 °F 93% 30.03 in 6.0 mi SSE 15.0 mph - N/A   Overcast
9:53 PM 71.1 °F 69.1 °F 93% 30.04 in 6.0 mi SSE 10.4 mph - N/A   Overcast
10:53 PM 71.1 °F 69.1 °F 93% 30.04 in 6.0 mi South 12.7 mph - N/A   Overcast
11:53 PM 71.1 °F 69.1 °F 93% 30.03 in 6.0 mi SSE 11.5 mph - N/A   Overcast